User: anonymous   Login
Location: Ostrava
(49.8330°N, 18.2830°E)
Time: 20:42:08
(UTC+02:00)
Language:

Cosmos 2221 - Orbit

View from above orbital plane
View from above orbital plane
View from above satellite
View from above satellite

Ground track
Ground track

The orbit data is extracted from the following two-line orbital elements,

1 22236U 92080A   17290.16677275  .00000288  00000-0  28882-4 0  9994
2 22236  82.5057 304.0462 0015622 319.2916  40.7133 14.87645176345458
Epoch (UTC): 17 October 2017 04:00:09
Eccentricity: 0.0015622
inclination: 82.5057°
perigee height: 594 km
apogee height: 616 km
right ascension of ascending node: 304.0462°
argument of perigee: 319.2916°
revolutions per day: 14.87645176
mean anomaly at epoch: 40.7133°
orbit number at epoch: 34545

The dashed part of the orbit path shows where the satellite is in the earth's shadow,  

DLR